Weather History for KMGC - December, 2013

Change the Weather History Date:

Tuesday, December 24, 2013

  Actual Average (KVPZ) Record (KVPZ)
Temperature  
Mean Temperature 11 °F 26 °F  
Max Temperature 19 °F 32 °F 43 °F (2006)
Min Temperature 3 °F 19 °F -5 °F (2004)
Degree Days  
Heating Degree Days 54 39  
Month to date heating degree days 863  
Since 1 July heating degree days 2121  
Cooling Degree Days 0 0  
Month to date cooling degree days 0  
Year to date cooling degree days 713  
Moisture  
Dew Point 4 °F    
Average Humidity 73    
Maximum Humidity 85    
Minimum Humidity 58    
Precipitation  
Precipitation 0.00 in 0.06 in 0.33 in (2014)
Month to date precipitation 1.73  
Year to date precipitation 37.06  
Sea Level Pressure  
Sea Level Pressure 30.48 in    
Wind  
Wind Speed 8 mph (SSW)    
Max Wind Speed 13 mph    
Max Gust Speed 17 mph    
Visibility 9 miles    
Events Snow    
T = Trace of Precipitation, MM = Missing Value Source: NWS Daily Summary

Daily Weather History Graph

Daily Weather History Graph

Search for Another Location

Airport or City:

Trip Planner

Search our weather history database for the weather conditions in past years. The results will help you decide how hot, cold, wet, or windy it might be!

Date:

Astronomy

Dec. 24, 2013 Rise Set
Actual Time 7:12 AM CST 4:21 PM CST
Civil Twilight 6:40 AM CST 4:53 PM CST
Nautical Twilight 6:05 AM CST 5:28 PM CST
Astronomical Twilight 5:31 AM CST 6:02 PM CST
Moon 11:35 PM CST (12/24) 11:00 AM CST (12/24)
Length of Visible Light 10h 12m
Length of Day
9h 09m
Waning Gibbous, 58% of the Moon is Illuminated
Dec 24
Waning Gibbous
Dec 25
Last Quarter
Jan 1
New
Jan 7
First Quarter
Jan 15
Full

Hourly Weather History & Observations

Time (CST) Temp. Windchill Dew Point Humidity Pressure Visibility Wind Dir Wind Speed Gust Speed Precip Events Conditions
12:15 AM 3.2 °F -12.2 °F -0.4 °F 85% 30.42 in 2.5 mi SW 10.4 mph - N/A Snow Light Snow
12:35 AM 3.2 °F -12.2 °F -2.2 °F 78% 30.42 in 5.0 mi SW 10.4 mph - N/A   Haze
12:55 AM 3.2 °F -12.2 °F -4.0 °F 72% 30.41 in 5.0 mi SW 10.4 mph 17.3 mph N/A   Haze
1:15 AM 3.2 °F -10.3 °F -4.0 °F 72% 30.42 in 5.0 mi WSW 8.1 mph - N/A   Haze
1:35 AM 3.2 °F -13.1 °F -4.0 °F 72% 30.42 in 10.0 mi SW 11.5 mph - N/A   Overcast
1:55 AM 3.2 °F -13.9 °F -4.0 °F 72% 30.43 in 10.0 mi SW 12.7 mph - N/A   Overcast
2:15 AM 3.2 °F -12.2 °F -4.0 °F 72% 30.43 in 10.0 mi SW 10.4 mph - N/A   Overcast
2:35 AM 3.2 °F -10.3 °F -4.0 °F 72% 30.44 in 10.0 mi SW 8.1 mph - N/A   Overcast
2:55 AM 3.2 °F -11.3 °F -4.0 °F 72% 30.44 in 10.0 mi SW 9.2 mph - N/A   Overcast
3:15 AM 3.2 °F -10.3 °F -4.0 °F 72% 30.44 in 10.0 mi SW 8.1 mph - N/A   Overcast
3:35 AM 3.2 °F -12.2 °F -4.0 °F 72% 30.44 in 7.0 mi SW 10.4 mph - N/A Snow Light Snow
3:55 AM 3.2 °F -10.3 °F -4.0 °F 72% 30.44 in 10.0 mi SW 8.1 mph - N/A   Overcast
4:15 AM 3.2 °F -13.1 °F -4.0 °F 72% 30.44 in 10.0 mi SW 11.5 mph - N/A   Overcast
4:35 AM 3.2 °F -12.2 °F -4.0 °F 72% 30.44 in 7.0 mi WSW 10.4 mph - N/A   Overcast
4:55 AM 3.2 °F -9.1 °F -4.0 °F 72% 30.46 in 7.0 mi WSW 6.9 mph - N/A Snow Light Snow
5:15 AM 3.2 °F -11.3 °F -2.2 °F 78% 30.47 in 5.0 mi SW 9.2 mph - N/A Snow Light Snow
5:35 AM 3.2 °F -10.3 °F -2.2 °F 78% 30.47 in 4.0 mi SW 8.1 mph - N/A Snow Light Snow
5:55 AM 3.2 °F -10.3 °F -2.2 °F 78% 30.47 in 4.0 mi SW 8.1 mph - N/A Snow Light Snow
6:15 AM 3.2 °F -12.2 °F -2.2 °F 78% 30.48 in 3.0 mi SW 10.4 mph - N/A Snow Light Snow
6:35 AM 3.2 °F -11.3 °F -2.2 °F 78% 30.48 in 5.0 mi SW 9.2 mph - N/A Snow Light Snow
6:55 AM 3.2 °F -12.2 °F -2.2 °F 78% 30.47 in 7.0 mi SSW 10.4 mph - N/A   Overcast
7:15 AM 3.2 °F -12.2 °F -2.2 °F 78% 30.48 in 10.0 mi SSW 10.4 mph - N/A   Overcast
7:35 AM 3.2 °F -12.2 °F -2.2 °F 78% 30.50 in 10.0 mi SW 10.4 mph - N/A   Overcast
7:55 AM 3.2 °F -10.3 °F -2.2 °F 78% 30.51 in 7.0 mi SW 8.1 mph - N/A   Overcast
8:15 AM 3.2 °F -13.1 °F -2.2 °F 78% 30.52 in 5.0 mi SSW 11.5 mph - N/A   Haze
8:35 AM 3.2 °F -11.3 °F -2.2 °F 78% 30.52 in 5.0 mi SSW 9.2 mph - N/A   Haze
8:55 AM 5.0 °F -8.1 °F -0.4 °F 78% 30.52 in 5.0 mi SW 8.1 mph - N/A Snow Light Snow
9:15 AM 5.0 °F -6.9 °F -0.4 °F 78% 30.52 in 4.0 mi SSW 6.9 mph - N/A Snow Light Snow
9:35 AM 8.6 °F -2.6 °F 1.4 °F 73% 30.53 in 4.0 mi SW 6.9 mph - N/A Snow Light Snow
9:55 AM 8.6 °F -1.3 °F 1.4 °F 73% 30.54 in 4.0 mi SW 5.8 mph - N/A Snow Light Snow
10:15 AM 10.4 °F -1.5 °F 1.4 °F 67% 30.55 in 10.0 mi SW 8.1 mph - N/A   Mostly Cloudy
10:35 AM 10.4 °F 0.8 °F 1.4 °F 67% 30.54 in 10.0 mi SW 5.8 mph - N/A   Clear
10:55 AM 12.2 °F 1.7 °F 3.2 °F 67% 30.54 in 10.0 mi SW 6.9 mph - N/A   Clear
11:15 AM 12.2 °F 1.7 °F 3.2 °F 67% 30.53 in 10.0 mi SW 6.9 mph - N/A   Scattered Clouds
11:35 AM 14.0 °F 8.2 °F 5.0 °F 67% 30.52 in 10.0 mi SSW 3.5 mph - N/A   Mostly Cloudy
11:55 AM 14.0 °F 5.1 °F 3.2 °F 62% 30.51 in 10.0 mi South 5.8 mph - N/A   Scattered Clouds
12:15 PM 15.8 °F 8.6 °F 5.0 °F 62% 30.51 in 10.0 mi SSW 4.6 mph - N/A   Scattered Clouds
12:35 PM 17.6 °F 8.2 °F 5.0 °F 58% 30.51 in 10.0 mi SSW 6.9 mph - N/A   Clear
12:55 PM 17.6 °F 7.3 °F 8.6 °F 68% 30.51 in 10.0 mi SW 8.1 mph - N/A   Clear
1:15 PM 17.6 °F 9.3 °F 6.8 °F 63% 30.50 in 10.0 mi South 5.8 mph - N/A   Clear
1:35 PM 19.4 °F 10.4 °F 8.6 °F 63% 30.50 in 10.0 mi SW 6.9 mph - N/A   Scattered Clouds
1:55 PM 19.4 °F 14.3 °F 8.6 °F 63% 30.50 in 10.0 mi SE 3.5 mph - N/A   Scattered Clouds
2:15 PM 19.4 °F 14.3 °F 8.6 °F 63% 30.50 in 10.0 mi SSW 3.5 mph - N/A   Clear
2:35 PM 19.4 °F 11.5 °F 8.6 °F 63% 30.50 in 10.0 mi SSE 5.8 mph - N/A   Clear
2:55 PM 19.4 °F 11.5 °F 10.4 °F 68% 30.50 in 10.0 mi South 5.8 mph - N/A   Clear
3:15 PM 19.4 °F 10.4 °F 10.4 °F 68% 30.50 in 10.0 mi South 6.9 mph - N/A   Clear
3:35 PM 19.4 °F 10.4 °F 10.4 °F 68% 30.50 in 10.0 mi South 6.9 mph - N/A   Clear
3:55 PM 17.6 °F 9.3 °F 8.6 °F 68% 30.50 in 10.0 mi South 5.8 mph - N/A   Clear
4:15 PM 17.6 °F 10.7 °F 8.6 °F 68% 30.49 in 10.0 mi South 4.6 mph - N/A   Clear
4:35 PM 15.8 °F 8.6 °F 8.6 °F 73% 30.50 in 10.0 mi South 4.6 mph - N/A   Clear
4:55 PM 15.8 °F - 8.6 °F 73% 30.50 in 10.0 mi Calm Calm - N/A   Clear
5:15 PM 14.0 °F - 8.6 °F 79% 30.49 in 10.0 mi Calm Calm - N/A   Clear
5:35 PM 14.0 °F - 8.6 °F 79% 30.48 in 10.0 mi Calm Calm - N/A   Clear
5:55 PM 14.0 °F 8.2 °F 8.6 °F 79% 30.49 in 10.0 mi South 3.5 mph - N/A   Clear
6:15 PM 14.0 °F 8.2 °F 8.6 °F 79% 30.49 in 10.0 mi South 3.5 mph - N/A   Clear
6:35 PM 14.0 °F 8.2 °F 8.6 °F 79% 30.49 in 10.0 mi SSE 3.5 mph - N/A   Clear
6:55 PM 14.0 °F 8.2 °F 8.6 °F 79% 30.48 in 10.0 mi SSE 3.5 mph - N/A   Clear
7:15 PM 14.0 °F 8.2 °F 8.6 °F 79% 30.48 in 10.0 mi South 3.5 mph - N/A   Clear
7:35 PM 15.8 °F 7.2 °F 10.4 °F 79% 30.47 in 10.0 mi South 5.8 mph - N/A   Clear
7:55 PM 15.8 °F 6.1 °F 8.6 °F 73% 30.47 in 10.0 mi South 6.9 mph - N/A   Clear
8:15 PM 14.0 °F 5.1 °F 8.6 °F 79% 30.46 in 10.0 mi South 5.8 mph - N/A   Clear
8:35 PM 14.0 °F 3.9 °F 8.6 °F 79% 30.46 in 10.0 mi South 6.9 mph - N/A   Clear
8:55 PM 15.8 °F 7.2 °F 10.4 °F 79% 30.46 in 10.0 mi South 5.8 mph - N/A   Mostly Cloudy
9:15 PM 17.6 °F 9.3 °F 10.4 °F 73% 30.45 in 10.0 mi South 5.8 mph - N/A   Overcast
9:35 PM 17.6 °F 10.7 °F 10.4 °F 73% 30.45 in 10.0 mi South 4.6 mph - N/A   Overcast
9:55 PM 17.6 °F 9.3 °F 10.4 °F 73% 30.44 in 10.0 mi South 5.8 mph - N/A   Mostly Cloudy
10:15 PM 17.6 °F 9.3 °F 10.4 °F 73% 30.43 in 10.0 mi South 5.8 mph - N/A   Overcast
10:35 PM 17.6 °F 9.3 °F 10.4 °F 73% 30.42 in 10.0 mi SSE 5.8 mph - N/A   Overcast
10:55 PM 17.6 °F 8.2 °F 10.4 °F 73% 30.43 in 10.0 mi South 6.9 mph - N/A   Overcast
11:15 PM 17.6 °F 8.2 °F 12.2 °F 79% 30.42 in 10.0 mi SSE 6.9 mph - N/A   Overcast
11:35 PM 17.6 °F 8.2 °F 12.2 °F 79% 30.40 in 10.0 mi SSE 6.9 mph - N/A   Overcast
11:55 PM 19.4 °F 12.8 °F 10.4 °F 68% 30.40 in 10.0 mi SSE 4.6 mph - N/A   Overcast